Weather History for Mount Carmel, IL

Change the Weather History Date:

Sunday, February 17, 2013

  Actual Average (KLWV) Record (KLWV)
Temperature  
Mean Temperature 31 °F 36 °F  
Max Temperature 41 °F 45 °F 65 °F (2011)
Min Temperature 21 °F 27 °F 9 °F (1991)
Degree Days  
Heating Degree Days 34 29  
Month to date heating degree days 528  
Since 1 July heating degree days 3379  
Cooling Degree Days 0 0  
Month to date cooling degree days 0  
Year to date cooling degree days 0  
Moisture  
Dew Point 21 °F    
Average Humidity 68    
Maximum Humidity 86    
Minimum Humidity 42    
Precipitation  
Precipitation 0.00 in 0.07 in 0.69 in (1982)
Month to date precipitation 1.30  
Year to date precipitation 3.68  
Sea Level Pressure  
Sea Level Pressure 30.18 in    
Wind  
Wind Speed 3 mph (SE)    
Max Wind Speed 12 mph    
Max Gust Speed -    
Visibility 10 miles    
Events      
T = Trace of Precipitation, MM = Missing Value Source: NWS Daily Summary

Daily Weather History Graph

Daily Weather History Graph

Search for Another Location

Airport:

Trip Planner

Search our weather history database for the weather conditions in past years. The results will help you decide how hot, cold, wet, or windy it might be!

Date:

Astronomy

Feb. 17, 2013 Rise Set
Actual Time 6:38 AM CST 5:31 PM CST
Civil Twilight 6:11 AM CST 5:58 PM CST
Nautical Twilight 5:40 AM CST 6:29 PM CST
Astronomical Twilight 5:10 AM CST 7:00 PM CST
Moon 10:37 AM CST (2/17) 12:21 AM CST (2/17)
Length of Visible Light 11h 46m
Length of Day
10h 52m
Waxing Crescent, 49% of the Moon is Illuminated
Feb 17
Waxing Crescent
Feb 17
First Quarter
Feb 25
Full
Mar 4
Last Quarter
Mar 11
New

Hourly Weather History & Observations

Time (CST) Temp. Windchill Dew Point Humidity Pressure Visibility Wind Dir Wind Speed Gust Speed Precip Events Conditions
12:15 AM 26.6 °F - 21.2 °F 80% 30.18 in 10.0 mi Calm Calm - N/A   Clear
12:35 AM 24.8 °F - 17.6 °F 74% 30.18 in 10.0 mi Calm Calm - N/A   Clear
12:55 AM 24.8 °F - 19.4 °F 80% 30.18 in 10.0 mi Calm Calm - N/A   Clear
1:15 AM 24.8 °F - 19.4 °F 80% 30.18 in 10.0 mi Calm Calm - N/A   Clear
1:35 AM 23.0 °F - 19.4 °F 86% 30.18 in 10.0 mi Calm Calm - N/A   Clear
1:55 AM 24.8 °F - 19.4 °F 80% 30.19 in 10.0 mi Calm Calm - N/A   Clear
2:15 AM 24.8 °F - 19.4 °F 80% 30.19 in 10.0 mi Calm Calm - N/A   Clear
2:35 AM 24.8 °F - 19.4 °F 80% 30.19 in 10.0 mi Calm Calm - N/A   Clear
2:55 AM 24.8 °F - 17.6 °F 74% 30.19 in 10.0 mi Calm Calm - N/A   Clear
3:15 AM 24.8 °F - 17.6 °F 74% 30.19 in 10.0 mi Calm Calm - N/A   Clear
3:35 AM 23.0 °F - 17.6 °F 80% 30.19 in 10.0 mi Calm Calm - N/A   Clear
4:15 AM 23.0 °F - 17.6 °F 80% 30.20 in 10.0 mi Calm Calm - N/A   Clear
4:35 AM 23.0 °F - 17.6 °F 80% 30.20 in 10.0 mi Calm Calm - N/A   Clear
4:55 AM 23.0 °F 18.4 °F 17.6 °F 80% 30.21 in 10.0 mi NNE 3.5 mph - N/A   Clear
5:15 AM 23.0 °F - 17.6 °F 80% 30.22 in 10.0 mi Calm Calm - N/A   Clear
5:35 AM 21.2 °F - 17.6 °F 86% 30.22 in 10.0 mi Calm Calm - N/A   Clear
5:55 AM 21.2 °F - 17.6 °F 86% 30.23 in 10.0 mi Calm Calm - N/A   Clear
6:15 AM 21.2 °F - 17.6 °F 86% 30.24 in 10.0 mi Calm Calm - N/A   Clear
6:35 AM 21.2 °F - 17.6 °F 86% 30.25 in 10.0 mi Calm Calm - N/A   Clear
6:55 AM 21.2 °F - 17.6 °F 86% 30.25 in 10.0 mi Calm Calm - N/A   Clear
7:15 AM 21.2 °F 14.9 °F 17.6 °F 86% 30.26 in 10.0 mi NE 4.6 mph - N/A   Clear
7:35 AM 23.0 °F 14.7 °F 19.4 °F 86% 30.26 in 10.0 mi NE 6.9 mph - N/A   Clear
7:55 AM 24.8 °F 16.1 °F 17.6 °F 74% 30.26 in 10.0 mi ENE 8.1 mph - N/A   Clear
8:15 AM 26.6 °F 18.2 °F 17.6 °F 69% 30.26 in 10.0 mi ENE 8.1 mph - N/A   Clear
8:35 AM 26.6 °F 19.1 °F 17.6 °F 69% 30.27 in 10.0 mi East 6.9 mph - N/A   Clear
8:55 AM 28.4 °F 22.2 °F 15.8 °F 59% 30.27 in 10.0 mi East 5.8 mph - N/A   Clear
9:15 AM 28.4 °F 22.2 °F 17.6 °F 64% 30.27 in 10.0 mi SE 5.8 mph - N/A   Clear
9:35 AM 30.2 °F 25.4 °F 17.6 °F 60% 30.27 in 10.0 mi SSE 4.6 mph - N/A   Clear
9:55 AM 30.2 °F 24.3 °F 17.6 °F 60% 30.27 in 10.0 mi SE 5.8 mph - N/A   Clear
10:15 AM 32.0 °F 28.7 °F 17.6 °F 55% 30.27 in 10.0 mi SE 3.5 mph - N/A   Clear
10:35 AM 32.0 °F 27.5 °F 17.6 °F 55% 30.27 in 10.0 mi SE 4.6 mph - N/A   Clear
10:55 AM 32.0 °F 25.6 °F 17.6 °F 55% 30.27 in 10.0 mi ESE 6.9 mph - N/A   Clear
11:15 AM 33.8 °F 29.6 °F 19.4 °F 56% 30.26 in 10.0 mi SSE 4.6 mph - N/A   Clear
11:35 AM 33.8 °F 27.7 °F 17.6 °F 52% 30.25 in 10.0 mi SSE 6.9 mph - N/A   Clear
11:55 AM 33.8 °F 25.3 °F 19.4 °F 56% 30.24 in 10.0 mi SSW 11.5 mph - N/A   Clear
12:15 PM 35.6 °F 32.8 °F 19.4 °F 52% 30.23 in 10.0 mi South 3.5 mph - N/A   Clear
12:35 PM 35.6 °F 32.8 °F 19.4 °F 52% 30.23 in 10.0 mi South 3.5 mph - N/A   Clear
12:55 PM 37.4 °F 33.8 °F 21.2 °F 52% 30.22 in 10.0 mi SSE 4.6 mph - N/A   Clear
1:15 PM 37.4 °F - 21.2 °F 52% 30.21 in 10.0 mi Calm Calm - N/A   Clear
1:35 PM 39.2 °F 35.0 °F 21.2 °F 49% 30.20 in 10.0 mi SSE 5.8 mph - N/A   Clear
1:55 PM 39.2 °F 37.0 °F 19.4 °F 45% 30.19 in 10.0 mi ESE 3.5 mph - N/A   Clear
2:15 PM 41.0 °F 36.4 °F 19.4 °F 42% 30.18 in 10.0 mi ESE 6.9 mph - N/A   Clear
2:35 PM 41.0 °F 36.4 °F 21.2 °F 45% 30.18 in 10.0 mi SSE 6.9 mph - N/A   Clear
2:55 PM 41.0 °F 36.4 °F 19.4 °F 42% 30.17 in 10.0 mi SE 6.9 mph - N/A   Clear
3:15 PM 41.0 °F 35.2 °F 21.2 °F 45% 30.17 in 10.0 mi SE 9.2 mph - N/A   Clear
3:35 PM 41.0 °F 35.8 °F 21.2 °F 45% 30.16 in 10.0 mi SSE 8.1 mph - N/A   Clear
3:55 PM 41.0 °F 35.2 °F 21.2 °F 45% 30.15 in 10.0 mi SE 9.2 mph - N/A   Clear
4:15 PM 41.0 °F 34.3 °F 23.0 °F 49% 30.15 in 10.0 mi SSE 11.5 mph - N/A   Clear
4:35 PM 39.2 °F 32.5 °F 21.2 °F 49% 30.14 in 10.0 mi SE 10.4 mph - N/A   Clear
4:55 PM 41.0 °F 34.7 °F 21.2 °F 45% 30.14 in 10.0 mi SE 10.4 mph - N/A   Clear
5:15 PM 37.4 °F 30.8 °F 23.0 °F 56% 30.14 in 10.0 mi SSE 9.2 mph - N/A   Clear
5:35 PM 35.6 °F 29.9 °F 24.8 °F 65% 30.13 in 10.0 mi ESE 6.9 mph - N/A   Clear
5:55 PM 33.8 °F 26.4 °F 24.8 °F 70% 30.12 in 10.0 mi ESE 9.2 mph - N/A   Clear
6:15 PM 33.8 °F 27.7 °F 24.8 °F 70% 30.12 in 10.0 mi ESE 6.9 mph - N/A   Clear
6:35 PM 33.8 °F 27.0 °F 24.8 °F 70% 30.12 in 10.0 mi ESE 8.1 mph - N/A   Clear
6:55 PM 32.0 °F 24.8 °F 24.8 °F 75% 30.12 in 10.0 mi ESE 8.1 mph - N/A   Clear
7:15 PM 32.0 °F 24.8 °F 24.8 °F 75% 30.12 in 10.0 mi ESE 8.1 mph - N/A   Clear
7:35 PM 32.0 °F 24.8 °F 24.8 °F 75% 30.12 in 10.0 mi ESE 8.1 mph - N/A   Clear
7:55 PM 32.0 °F 24.2 °F 24.8 °F 75% 30.12 in 10.0 mi ESE 9.2 mph - N/A   Clear
8:15 PM 32.0 °F 25.6 °F 24.8 °F 75% 30.12 in 10.0 mi SE 6.9 mph - N/A   Clear
8:35 PM 32.0 °F 24.8 °F 24.8 °F 75% 30.12 in 10.0 mi SE 8.1 mph - N/A   Clear
8:55 PM 33.8 °F 27.0 °F 24.8 °F 70% 30.12 in 10.0 mi SE 8.1 mph - N/A   Clear
9:15 PM 33.8 °F 26.4 °F 24.8 °F 70% 30.12 in 10.0 mi SE 9.2 mph - N/A   Clear
9:35 PM 33.8 °F 26.4 °F 24.8 °F 70% 30.12 in 10.0 mi SE 9.2 mph - N/A   Clear
9:55 PM 33.8 °F 26.4 °F 24.8 °F 70% 30.11 in 10.0 mi SE 9.2 mph - N/A   Clear
10:15 PM 32.0 °F 24.8 °F 24.8 °F 75% 30.10 in 10.0 mi SE 8.1 mph - N/A   Clear
10:35 PM 32.0 °F 24.8 °F 24.8 °F 75% 30.10 in 10.0 mi ESE 8.1 mph - N/A   Clear
10:55 PM 32.0 °F 25.6 °F 24.8 °F 75% 30.09 in 10.0 mi SE 6.9 mph - N/A   Clear
11:15 PM 32.0 °F 25.6 °F 24.8 °F 75% 30.09 in 10.0 mi ESE 6.9 mph - N/A   Clear
11:35 PM 32.0 °F 26.4 °F 24.8 °F 75% 30.08 in 10.0 mi SE 5.8 mph - N/A   Clear
11:55 PM 32.0 °F 25.6 °F 24.8 °F 75% 30.08 in 10.0 mi SE 6.9 mph - N/A   Clear